Rock Springs, WY

12:59 AM MDT on May 24, 2018 (GMT -0600)
Rock Springs-Sweetwater

Weather History for KRKS - March, 2014

Change the Weather History Date:

Thursday, March 13, 2014

  Actual Average Record
Temperature  
Mean Temperature 38 °F 33 °F  
Max Temperature 50 °F 43 °F 63 °F (2003)
Min Temperature 26 °F 23 °F -6 °F (1962)
Degree Days  
Heating Degree Days 27 32  
Month to date heating degree days 447  
Since 1 July heating degree days 6299  
Cooling Degree Days 0 0  
Month to date cooling degree days 0  
Year to date cooling degree days 0  
Moisture  
Dew Point 12 °F    
Average Humidity 41    
Maximum Humidity 61    
Minimum Humidity 16    
Precipitation  
Precipitation 0.00 in 0.02 in 0.34 in (1973)
Month to date precipitation 0.24  
Year to date precipitation 1.17  
Sea Level Pressure  
Sea Level Pressure 30.05 in    
Wind  
Wind Speed 16 mph (WSW)    
Max Wind Speed 30 mph    
Max Gust Speed 38 mph    
Visibility 10 miles    
Events      
T = Trace of Precipitation, MM = Missing Value Source: NWS Daily Summary

Daily Weather History Graph

Daily Weather History Graph

Search for Another Location

Airport or City:

Astronomy

Mar. 13, 2014 Rise Set
Actual Time 7:31 AM MDT 7:20 PM MDT
Civil Twilight 7:03 AM MDT 7:48 PM MDT
Nautical Twilight 6:31 AM MDT 8:20 PM MDT
Astronomical Twilight 5:58 AM MDT 8:53 PM MDT
Moon 4:48 PM MDT (3/13) 5:41 AM MDT (3/13)
Length of Visible Light 12h 44m
Length of Day
11h 49m
Waxing Gibbous, 92% of the Moon is Illuminated
Mar 13
Waxing Gibbous
Mar 16
Full
Mar 23
Last Quarter
Mar 30
New
Apr 7
First Quarter

Hourly Weather History & Observations

Time (MDT) Temp. Windchill Dew Point Humidity Pressure Visibility Wind Dir Wind Speed Gust Speed Precip Events Conditions
12:54 AM 30.9 °F 20.2 °F 16.0 °F 54% 30.19 in 10.0 mi SW 15.0 mph - N/A   Clear
1:54 AM 30.0 °F 19.1 °F 16.0 °F 56% 30.17 in 10.0 mi WSW 15.0 mph - N/A   Clear
2:54 AM 28.0 °F 18.1 °F 16.0 °F 61% 30.16 in 10.0 mi WSW 11.5 mph - N/A   Clear
3:54 AM 26.1 °F 16.8 °F 14.0 °F 60% 30.14 in 10.0 mi SW 9.2 mph - N/A   Clear
4:54 AM 27.0 °F 17.3 °F 14.0 °F 58% 30.10 in 10.0 mi SSW 10.4 mph - N/A   Clear
6:54 AM 28.0 °F 16.1 °F 14.0 °F 56% 30.11 in 10.0 mi WSW 16.1 mph - N/A   Clear
7:54 AM 27.0 °F 16.1 °F 14.0 °F 58% 30.12 in 10.0 mi SW 12.7 mph - N/A   Clear
8:54 AM 30.0 °F 20.5 °F 15.1 °F 54% 30.13 in 10.0 mi SSW 11.5 mph - N/A   Clear
9:54 AM 35.1 °F 25.2 °F 15.1 °F 44% 30.10 in 10.0 mi WSW 16.1 mph - N/A   Clear
10:54 AM 39.0 °F 28.8 °F 12.0 °F 33% 30.06 in 10.0 mi West 21.9 mph - N/A   Clear
11:54 AM 43.0 °F 34.0 °F 10.9 °F 27% 30.02 in 10.0 mi West 21.9 mph - N/A   Clear
12:54 PM 46.0 °F 38.3 °F 12.0 °F 25% 29.98 in 10.0 mi WSW 20.7 mph - N/A   Clear
1:54 PM 48.0 °F - 9.0 °F 21% 29.95 in 10.0 mi WNW 21.9 mph 31.1 mph N/A   Clear
2:54 PM 50.0 °F - 5.0 °F 16% 29.93 in 10.0 mi West 24.2 mph 32.2 mph N/A   Clear
3:54 PM 46.0 °F 37.4 °F 3.0 °F 17% 29.96 in 10.0 mi West 25.3 mph 35.7 mph N/A   Clear
4:54 PM 48.9 °F - 3.9 °F 16% 29.92 in 10.0 mi West 29.9 mph 38.0 mph N/A   Clear
5:54 PM 46.0 °F 38.3 °F 3.9 °F 18% 29.94 in 10.0 mi West 20.7 mph 31.1 mph N/A   Clear
6:54 PM 42.1 °F 33.6 °F 8.1 °F 25% 29.98 in 10.0 mi West 18.4 mph 26.5 mph N/A   Clear
7:54 PM 39.0 °F 31.0 °F 12.9 °F 34% 30.02 in 10.0 mi WNW 13.8 mph - N/A   Clear
9:54 PM 33.1 °F 23.9 °F 17.1 °F 52% 30.04 in 10.0 mi West 12.7 mph - N/A   Clear
10:54 PM 30.9 °F 22.8 °F 18.0 °F 59% 30.05 in 10.0 mi SW 9.2 mph - N/A   Clear
11:54 PM 28.9 °F 20.4 °F 17.1 °F 61% 30.05 in 10.0 mi WSW 9.2 mph - N/A   Clear